| time (UTC) | temp F | wind direction | speed MPH | gust MPH | rain 1hr in | rain 24hr in | rain mn in | humidity % | barometer mb |
| 20260905024530 | 60 | 0.0 | 0.0 | 0.00 | 0.02 | 0.02 | 93 | 1006.1 | |
| 20260905023019 | 60 | 0.0 | 0.0 | 0.00 | 0.02 | 0.02 | 93 | 1006.1 | |
| 20260905021513 | 60 | 0.0 | 0.0 | 0.00 | 0.02 | 0.02 | 93 | 1006.0 | |
| 20260905020012 | 60 | 0.0 | 0.0 | 0.00 | 0.02 | 0.02 | 93 | 1005.9 | |
| 20260905014505 | 60 | 0.0 | 0.0 | 0.00 | 0.02 | 0.02 | 92 | 1005.9 | |
| 20260905013000 | 60 | 0.0 | 0.0 | 0.00 | 0.02 | 0.02 | 92 | 1005.9 | |
| 20260905011556 | 61 | 0.0 | 0.0 | 0.00 | 0.02 | 0.02 | 92 | 1006.1 | |
| 20260905010058 | 61 | 0.0 | 0.0 | 0.00 | 0.02 | 0.02 | 92 | 1006.0 | |
| 20260905004607 | 61 | 0.0 | 0.0 | 0.00 | 0.02 | 0.02 | 91 | 1006.1 | |
| 20260905004530 | 61 | 0.0 | 0.0 | 0.00 | 0.02 | 0.02 | 91 | 1006.1 | |
| 20260905003043 | 61 | 0.0 | 0.0 | 0.00 | 0.02 | 0.02 | 91 | 1006.0 | |
| 20260905001540 | 62 | 0.0 | 0.0 | 0.00 | 0.02 | 0.02 | 92 | 1006.0 | |
| 20260905000035 | 62 | 0.0 | 0.0 | 0.00 | 0.02 | 0.02 | 92 | 1005.9 | |
| 20260904234530 | 62 | 0.0 | 0.0 | 0.00 | 0.03 | 0.02 | 92 | 1005.9 | |
| 20260904233026 | 62 | 0.0 | 0.0 | 0.00 | 0.03 | 0.02 | 91 | 1005.9 | |
| 20260904231526 | 63 | 0.0 | 0.0 | 0.00 | 0.03 | 0.02 | 91 | 1006.0 | |
| 20260904230017 | 63 | 0.0 | 0.0 | 0.00 | 0.03 | 0.02 | 90 | 1006.0 | |
| 20260904224516 | 63 | 0.0 | 0.0 | 0.00 | 0.06 | 0.02 | 90 | 1006.0 | |
| 20260904223014 | 63 | 0.0 | 0.0 | 0.01 | 0.06 | 0.02 | 89 | 1005.9 | |
| 20260904221503 | 63 | 0.0 | 0.0 | 0.01 | 0.06 | 0.02 | 90 | 1005.8 | |
| 20260904214604 | 64 | 0.0 | 0.0 | 0.01 | 0.09 | 0.02 | 86 | 1006.1 | |
| 20260904213051 | 67 | 0.0 | 0.0 | 0.00 | 0.08 | 0.01 | 81 | 1005.8 | |
| 20260904211546 | 67 | 0.0 | 0.0 | 0.00 | 0.08 | 0.01 | 80 | 1005.6 | |
| 20260904210050 | 68 | 0.0 | 0.0 | 0.00 | 0.08 | 0.01 | 79 | 1005.6 | |
| 20260904204537 | 69 | 0.0 | 0.0 | 0.00 | 0.08 | 0.01 | 80 | 1005.5 | |
| 20260904203033 | 69 | 0.0 | 0.0 | 0.00 | 0.08 | 0.01 | 81 | 1005.5 | |
| 20260904201527 | 67 | 0.0 | 0.0 | 0.00 | 0.08 | 0.01 | 82 | 1005.6 | |
| 20260904200024 | 67 | 0.0 | 0.0 | 0.00 | 0.08 | 0.01 | 81 | 1005.5 | |
| 20260904194531 | 68 | 0.0 | 0.0 | 0.00 | 0.09 | 0.01 | 80 | 1005.6 | |
| 20260904193016 | 69 | 0.0 | 0.0 | 0.00 | 0.09 | 0.01 | 79 | 1005.8 | |
| 20260904191510 | 69 | 0.0 | 0.0 | 0.00 | 0.09 | 0.01 | 78 | 1005.7 | |
| 20260904190006 | 68 | 0.0 | 0.0 | 0.00 | 0.09 | 0.01 | 82 | 1005.8 | |
| 20260904184504 | 68 | 0.0 | 0.0 | 0.00 | 0.09 | 0.01 | 82 | 1005.9 | |
| 20260904183058 | 66 | 0.0 | 0.0 | 0.00 | 0.09 | 0.01 | 85 | 1006.1 | |
| 20260904181555 | 67 | 0.0 | 0.0 | 0.00 | 0.09 | 0.01 | 83 | 1006.2 | |
| 20260904180049 | 66 | 0.0 | 0.0 | 0.00 | 0.09 | 0.01 | 85 | 1006.2 | |
| 20260904174553 | 66 | 0.0 | 0.0 | 0.00 | 0.12 | 0.01 | 85 | 1006.3 | |
| 20260904173041 | 66 | 0.0 | 0.0 | 0.00 | 0.12 | 0.01 | 87 | 1006.4 | |
| 20260904171543 | 66 | 0.0 | 0.0 | 0.00 | 0.12 | 0.01 | 86 | 1006.5 | |
| 20260904170032 | 66 | 0.0 | 0.0 | 0.00 | 0.12 | 0.01 | 85 | 1006.6 | |
| 20260904164527 | 66 | 0.0 | 0.0 | 0.00 | 0.16 | 0.01 | 85 | 1006.6 | |
| 20260904163028 | 66 | 0.0 | 0.0 | 0.00 | 0.16 | 0.01 | 87 | 1006.7 | |
| 20260904161517 | 65 | 0.0 | 0.0 | 0.00 | 0.16 | 0.01 | 86 | 1006.8 | |
| 20260904160014 | 65 | 0.0 | 0.0 | 0.00 | 0.16 | 0.01 | 87 | 1006.9 | |
| 20260904154509 | 65 | 0.0 | 0.0 | 0.00 | 0.22 | 0.01 | 88 | 1007.0 | |
| 20260904153029 | 64 | 0.0 | 0.0 | 0.00 | 0.22 | 0.01 | 88 | 1007.1 | |
| 20260904151601 | 64 | 0.0 | 0.0 | 0.00 | 0.22 | 0.01 | 89 | 1007.1 | |
| 20260904150056 | 64 | 0.0 | 0.0 | 0.00 | 0.22 | 0.01 | 88 | 1007.1 | |
| 20260904144552 | 64 | 0.0 | 0.0 | 0.00 | 0.28 | 0.01 | 92 | 1007.2 | |
| 20260904143047 | 63 | 0.0 | 0.0 | 0.00 | 0.28 | 0.01 | 93 | 1007.4 | |
| 20260904141543 | 62 | 0.0 | 0.0 | 0.00 | 0.28 | 0.01 | 95 | 1007.5 | |
| 20260904140038 | 61 | 0.0 | 0.0 | 0.00 | 0.28 | 0.01 | 96 | 1007.5 | |
| 20260904134535 | 61 | 0.0 | 0.0 | 0.00 | 0.33 | 0.01 | 97 | 1007.6 | |
| 20260904133030 | 61 | 0.0 | 0.0 | 0.00 | 0.33 | 0.01 | 97 | 1007.7 | |
| 20260904131525 | 60 | 0.0 | 0.0 | 0.00 | 0.33 | 0.01 | 97 | 1007.7 | |
| 20260904130021 | 60 | 0.0 | 0.0 | 0.00 | 0.33 | 0.01 | 98 | 1007.7 | |
| 20260904124515 | 60 | 0.0 | 0.0 | 0.00 | 0.34 | 0.01 | 98 | 1007.6 | |
| 20260904123014 | 60 | 0.0 | 0.0 | 0.00 | 0.34 | 0.01 | 98 | 1007.7 | |
| 20260904121510 | 60 | 0.0 | 0.0 | 0.00 | 0.34 | 0.01 | 97 | 1007.7 | |
| 20260904120003 | 59 | 0.0 | 0.0 | 0.00 | 0.34 | 0.01 | 98 | 1007.6 | |
| 20260904114559 | 59 | 0.0 | 0.0 | 0.00 | 0.35 | 0.01 | 98 | 1007.5 | |
| 20260904113056 | 59 | 0.0 | 0.0 | 0.00 | 0.35 | 0.01 | 97 | 1007.6 | |
| 20260904111550 | 59 | 0.0 | 0.0 | 0.00 | 0.35 | 0.01 | 97 | 1007.6 | |
| 20260904110045 | 58 | 0.0 | 0.0 | 0.00 | 0.35 | 0.01 | 97 | 1007.7 | |
| 20260904104543 | 58 | 0.0 | 0.0 | 0.00 | 0.37 | 0.01 | 97 | 1007.6 | |
| 20260904103049 | 58 | 0.0 | 0.0 | 0.00 | 0.37 | 0.01 | 97 | 1007.7 | |
| 20260904101535 | 58 | 0.0 | 0.0 | 0.00 | 0.37 | 0.01 | 97 | 1007.7 | |
| 20260904100028 | 58 | 0.0 | 0.0 | 0.00 | 0.37 | 0.01 | 97 | 1007.6 | |
| 20260904094524 | 58 | 0.0 | 0.0 | 0.00 | 0.41 | 0.01 | 97 | 1007.7 | |
| 20260904093020 | 58 | 0.0 | 0.0 | 0.00 | 0.41 | 0.01 | 97 | 1007.7 | |
| 20260904091515 | 58 | 0.0 | 0.0 | 0.00 | 0.41 | 0.01 | 97 | 1007.8 | |
| 20260904090012 | 58 | 0.0 | 0.0 | 0.00 | 0.41 | 0.01 | 97 | 1007.9 | |
| 20260904084508 | 58 | 0.0 | 0.0 | 0.01 | 0.41 | 0.01 | 97 | 1007.8 | |
| 20260904083004 | 59 | 0.0 | 0.0 | 0.01 | 0.41 | 0.01 | 97 | 1007.9 | |
| 20260904081558 | 59 | 0.0 | 0.0 | 0.01 | 0.41 | 0.01 | 97 | 1008.1 | |
| 20260904080053 | 59 | 0.0 | 0.0 | 0.01 | 0.41 | 0.01 | 97 | 1008.0 | |
| 20260904074603 | 59 | 0.0 | 0.0 | 0.00 | 0.40 | 0.00 | 97 | 1008.1 | |
| 20260904073045 | 59 | 0.0 | 0.0 | 0.00 | 0.40 | 0.00 | 97 | 1008.2 | |
| 20260904071541 | 59 | 0.0 | 0.0 | 0.00 | 0.40 | 0.00 | 97 | 1008.1 | |
| 20260904070036 | 59 | 0.0 | 0.0 | 0.00 | 0.40 | 0.00 | 97 | 1008.2 | |
| 20260904064536 | 59 | 0.0 | 0.0 | 0.00 | 0.40 | 0.00 | 97 | 1008.3 | |
| 20260904063027 | 59 | 0.0 | 0.0 | 0.00 | 0.40 | 0.00 | 97 | 1008.4 | |
| 20260904061530 | 59 | 0.0 | 0.0 | 0.00 | 0.40 | 0.00 | 97 | 1008.5 | |
| 20260904060024 | 59 | 0.0 | 0.0 | 0.00 | 0.40 | 0.00 | 97 | 1008.6 | |
| 20260904054516 | 59 | 0.0 | 0.0 | 0.00 | 0.40 | 0.00 | 97 | 1008.7 | |
| 20260904053017 | 59 | 0.0 | 0.0 | 0.00 | 0.40 | 0.00 | 97 | 1009.0 | |
| 20260904051506 | 59 | 0.0 | 0.0 | 0.00 | 0.40 | 0.00 | 96 | 1009.2 | |
| 20260904050006 | 59 | 0.0 | 0.0 | 0.00 | 0.40 | 0.00 | 96 | 1009.6 | |
| 20260904044606 | 59 | 0.0 | 0.0 | 0.00 | 0.40 | 0.00 | 96 | 1009.6 | |
| 20260904043055 | 59 | 0.0 | 0.0 | 0.00 | 0.40 | 0.00 | 96 | 1009.9 | |
| 20260904041551 | 59 | 0.0 | 0.0 | 0.00 | 0.40 | 0.00 | 96 | 1009.8 | |
| 20260904040053 | 59 | 0.0 | 0.0 | 0.00 | 0.40 | 0.00 | 96 | 1010.1 | |
| 20260904034537 | 59 | 0.0 | 0.0 | 0.00 | 0.40 | 0.40 | 96 | 1010.1 | |
| 20260904033035 | 59 | 0.0 | 0.0 | 0.00 | 0.40 | 0.40 | 96 | 1010.2 | |
| 20260904031531 | 59 | 0.0 | 0.0 | 0.00 | 0.40 | 0.40 | 96 | 1010.3 | |
| 20260904030024 | 59 | 0.0 | 0.0 | 0.00 | 0.40 | 0.40 | 96 | 1010.3 |